Weather History for Champaign, IL

Change the Weather History Date:

Tuesday, January 8, 2013

  Actual Average Record
Temperature  
Mean Temperature 34 °F 25 °F  
Max Temperature 44 °F 33 °F 57 °F (2008)
Min Temperature 25 °F 17 °F 3 °F (2011)
Degree Days  
Heating Degree Days 30 40  
Month to date heating degree days 316  
Since 1 July heating degree days 2597  
Cooling Degree Days 0 0  
Month to date cooling degree days 0  
Year to date cooling degree days 0  
Moisture  
Dew Point 27 °F    
Average Humidity 79    
Maximum Humidity 92    
Minimum Humidity 62    
Precipitation  
Precipitation 0.00 in 0.07 in 1.35 in (2008)
Month to date precipitation 0.68  
Year to date precipitation 0.68  
Sea Level Pressure  
Sea Level Pressure 30.19 in    
Wind  
Wind Speed 10 mph (South)    
Max Wind Speed 15 mph    
Max Gust Speed -    
Visibility 7 miles    
Events      
T = Trace of Precipitation, MM = Missing Value Source: NWS Daily Summary

Daily Weather History Graph

Daily Weather History Graph

Search for Another Location

Airport:

Trip Planner

Search our weather history database for the weather conditions in past years. The results will help you decide how hot, cold, wet, or windy it might be!

Date:

Astronomy

Jan. 08, 2013 Rise Set
Actual Time 7:15 AM CST 4:45 PM CST
Civil Twilight 6:44 AM CST 5:15 PM CST
Nautical Twilight 6:11 AM CST 5:49 PM CST
Astronomical Twilight 5:38 AM CST 6:21 PM CST
Moon 3:47 AM CST (1/8) 1:47 PM CST (1/8)
Length of Visible Light 10h 30m
Length of Day
9h 30m
Waning Crescent, 13% of the Moon is Illuminated
Jan 8
Waning Crescent
Jan 11
New
Jan 18
First Quarter
Jan 26
Full
Feb 3
Last Quarter

Hourly Weather History & Observations

Time (CST) Temp. Windchill Dew Point Humidity Pressure Visibility Wind Dir Wind Speed Gust Speed Precip Events Conditions
12:53 AM 28.0 °F 19.3 °F 24.1 °F 85% 30.19 in 5.0 mi SSW 9.2 mph - N/A   Clear
1:53 AM 25.0 °F 17.1 °F 23.0 °F 92% 30.20 in 5.0 mi South 6.9 mph - N/A   Clear
2:53 AM 26.1 °F 17.6 °F 23.0 °F 88% 30.19 in 5.0 mi South 8.1 mph - N/A   Clear
3:53 AM 27.0 °F 19.5 °F 24.1 °F 89% 30.20 in 5.0 mi South 6.9 mph - N/A   Clear
4:53 AM 25.0 °F 18.1 °F 21.9 °F 88% 30.19 in 5.0 mi South 5.8 mph - N/A   Clear
5:53 AM 26.1 °F 17.6 °F 23.0 °F 88% 30.21 in 5.0 mi South 8.1 mph - N/A   Clear
6:53 AM 27.0 °F 18.0 °F 23.0 °F 85% 30.22 in 5.0 mi South 9.2 mph - N/A   Clear
7:53 AM 28.0 °F 18.6 °F 24.1 °F 85% 30.22 in 4.0 mi South 10.4 mph - N/A   Clear
8:53 AM 30.9 °F 22.2 °F 27.0 °F 85% 30.23 in 4.0 mi South 10.4 mph - N/A   Clear
9:53 AM 34.0 °F 27.2 °F 28.9 °F 82% 30.23 in 5.0 mi South 8.1 mph - N/A   Haze
10:53 AM 37.9 °F 30.5 °F 30.0 °F 73% 30.22 in 7.0 mi South 11.5 mph - N/A   Clear
11:53 AM 42.1 °F 35.2 °F 30.0 °F 62% 30.20 in 10.0 mi South 12.7 mph - N/A   Clear
1:53 PM 43.0 °F 36.4 °F 30.9 °F 62% 30.17 in 10.0 mi South 12.7 mph - N/A   Clear
2:53 PM 44.1 °F 37.7 °F 32.0 °F 63% 30.17 in 10.0 mi South 12.7 mph - N/A   Clear
3:53 PM 41.0 °F 34.3 °F 30.9 °F 67% 30.17 in 10.0 mi SSE 11.5 mph - N/A   Clear
4:53 PM 36.0 °F 27.5 °F 28.9 °F 76% 30.17 in 7.0 mi SSE 12.7 mph - N/A   Clear
5:53 PM 35.1 °F 25.9 °F 28.0 °F 76% 30.17 in 9.0 mi SSE 13.8 mph - N/A   Clear
6:53 PM 35.1 °F 25.9 °F 28.9 °F 78% 30.17 in 9.0 mi SSE 13.8 mph - N/A   Clear
7:53 PM 36.0 °F 26.7 °F 28.9 °F 76% 30.17 in 10.0 mi SSE 15.0 mph - N/A   Scattered Clouds
8:53 PM 36.0 °F 28.0 °F 30.0 °F 79% 30.17 in 9.0 mi South 11.5 mph - N/A   Mostly Cloudy
9:53 PM 37.0 °F 28.1 °F 30.9 °F 79% 30.15 in 10.0 mi South 15.0 mph - N/A   Overcast
11:53 PM 37.0 °F 28.9 °F 32.0 °F 82% 30.14 in 8.0 mi South 12.7 mph - N/A   Overcast